When you browse on this site, cookies collect data to enhance your experience and personalize the content and advertising you see.
Visit our Privacy Policy to learn more. By continuing to use the site, you agree to this use of cookies and data.
EN

Hourly Weather Amadora

Today, 10 August, Monday

Time Temperature Precipitation Wind Pressure Humidity
00:00 +17°C° 0 mm 5 mps 749 mmHg 91%
01:00 +16°C° 0 mm 5 mps 748 mmHg 92%
02:00 +16°C° 0 mm 5 mps 748 mmHg 92%
03:00 +16°C° 0 mm 5 mps 748 mmHg 93%
04:00 +17°C° 0 mm 4 mps 748 mmHg 93%
05:00 +17°C° 0 mm 4 mps 748 mmHg 93%
06:00 +19°C° 0 mm 4 mps 748 mmHg 85%
07:00 +20°C° 0 mm 5 mps 748 mmHg 77%
08:00 +22°C° 0 mm 5 mps 748 mmHg 68%
09:00 +23°C° 0 mm 5 mps 748 mmHg 62%
10:00 +26°C° 0 mm 5 mps 748 mmHg 56%
11:00 +27°C° 0 mm 6 mps 748 mmHg 50%
12:00 +27°C° 0 mm 6 mps 748 mmHg 51%
13:00 +27°C° 0 mm 7 mps 747 mmHg 51%
14:00 +27°C° 0 mm 7 mps 747 mmHg 51%
15:00 +26°C° 0 mm 7 mps 747 mmHg 57%
16:00 +24°C° 0 mm 7 mps 747 mmHg 62%
17:00 +22°C° 0 mm 7 mps 747 mmHg 68%
18:00 +21°C° 0 mm 7 mps 747 mmHg 75%
19:00 +20°C° 0 mm 6 mps 747 mmHg 82%
20:00 +19°C° 0 mm 5 mps 747 mmHg 89%
21:00 +17°C° 0 mm 5 mps 747 mmHg 90%
22:00 +17°C° 0 mm 5 mps 747 mmHg 91%
23:00 +17°C° 0 mm 5 mps 747 mmHg 92%

Tomorrow, 11 August, Tuesday

Time Temperature Precipitation Wind Pressure Humidity
00:00 +17°C° 0 mm 5 mps 747 mmHg 92%
01:00 +17°C° 0 mm 5 mps 747 mmHg 91%
02:00 +18°C° 0 mm 4 mps 746 mmHg 91%
03:00 +18°C° 0 mm 4 mps 747 mmHg 88%
04:00 +19°C° 0 mm 4 mps 747 mmHg 86%
05:00 +19°C° 0 mm 4 mps 747 mmHg 84%
06:00 +20°C° 0 mm 4 mps 747 mmHg 79%
07:00 +21°C° 0 mm 4 mps 747 mmHg 74%
08:00 +22°C° 0 mm 4 mps 747 mmHg 70%
09:00 +23°C° 0 mm 4 mps 747 mmHg 65%
10:00 +25°C° 0 mm 4 mps 748 mmHg 60%
11:00 +27°C° 0 mm 5 mps 748 mmHg 55%
12:00 +26°C° 0 mm 5 mps 748 mmHg 57%
13:00 +26°C° 0 mm 6 mps 748 mmHg 58%
14:00 +26°C° 0 mm 7 mps 748 mmHg 59%
15:00 +24°C° 0 mm 7 mps 748 mmHg 63%
16:00 +23°C° 0 mm 7 mps 747 mmHg 67%
17:00 +22°C° 0 mm 7 mps 747 mmHg 71%
18:00 +21°C° 0 mm 7 mps 748 mmHg 76%
19:00 +20°C° 0 mm 7 mps 748 mmHg 81%
20:00 +19°C° 0 mm 6 mps 749 mmHg 86%
21:00 +19°C° 0 mm 6 mps 749 mmHg 86%
22:00 +19°C° 0 mm 6 mps 749 mmHg 86%
23:00 +19°C° 0 mm 5 mps 749 mmHg 87%

Day after tomorrow, 12 August, Wednesday

Time Temperature Precipitation Wind Pressure Humidity
00:00 +19°C° 0 mm 6 mps 749 mmHg 86%
01:00 +19°C° 0 mm 6 mps 749 mmHg 86%
02:00 +19°C° 0 mm 6 mps 748 mmHg 86%
03:00 +19°C° 0.1 mm 6 mps 749 mmHg 87%
04:00 +19°C° 0.1 mm 6 mps 749 mmHg 88%
05:00 +19°C° 0.1 mm 6 mps 749 mmHg 89%
06:00 +20°C° 0.1 mm 6 mps 749 mmHg 87%
07:00 +20°C° 0.1 mm 6 mps 749 mmHg 85%
08:00 +20°C° 0.1 mm 6 mps 750 mmHg 83%
09:00 +21°C° 0.1 mm 6 mps 750 mmHg 78%
10:00 +22°C° 0.1 mm 6 mps 750 mmHg 73%
11:00 +23°C° 0.1 mm 7 mps 751 mmHg 68%
12:00 +23°C° 0 mm 7 mps 750 mmHg 68%
13:00 +23°C° 0 mm 7 mps 750 mmHg 67%
14:00 +23°C° 0 mm 7 mps 750 mmHg 66%
15:00 +23°C° 0 mm 7 mps 750 mmHg 67%
16:00 +22°C° 0 mm 7 mps 750 mmHg 68%
17:00 +22°C° 0 mm 6 mps 750 mmHg 70%
18:00 +21°C° 0 mm 6 mps 750 mmHg 73%
19:00 +20°C° 0 mm 6 mps 751 mmHg 77%
20:00 +19°C° 0 mm 6 mps 751 mmHg 81%
21:00 +17°C° 0 mm 5 mps 751 mmHg 84%
22:00 +17°C° 0 mm 5 mps 751 mmHg 87%
23:00 +16°C° 0 mm 5 mps 751 mmHg 90%

13 August, Thursday

Time Temperature Precipitation Wind Pressure Humidity
00:00 +16°C° 0 mm 5 mps 751 mmHg 90%
01:00 +16°C° 0 mm 6 mps 751 mmHg 91%
02:00 +16°C° 0 mm 6 mps 751 mmHg 91%
03:00 +16°C° 0 mm 6 mps 751 mmHg 91%
04:00 +16°C° 0 mm 6 mps 751 mmHg 91%
05:00 +16°C° 0 mm 6 mps 751 mmHg 91%
06:00 +19°C° 0 mm 6 mps 751 mmHg 82%
07:00 +20°C° 0 mm 6 mps 751 mmHg 73%
08:00 +22°C° 0 mm 6 mps 751 mmHg 64%
09:00 +24°C° 0 mm 7 mps 751 mmHg 57%
10:00 +26°C° 0 mm 7 mps 751 mmHg 51%
11:00 +27°C° 0 mm 7 mps 751 mmHg 45%
12:00 +27°C° 0 mm 8 mps 751 mmHg 44%
13:00 +27°C° 0 mm 8 mps 751 mmHg 42%
14:00 +27°C° 0 mm 8 mps 750 mmHg 41%
15:00 +26°C° 0 mm 8 mps 750 mmHg 46%
16:00 +24°C° 0 mm 8 mps 750 mmHg 51%
17:00 +22°C° 0 mm 8 mps 750 mmHg 55%
18:00 +21°C° 0 mm 8 mps 751 mmHg 64%
19:00 +18°C° 0 mm 7 mps 751 mmHg 72%
20:00 +17°C° 0 mm 6 mps 751 mmHg 80%
21:00 +17°C° 0 mm 6 mps 751 mmHg 83%
22:00 +17°C° 0 mm 6 mps 751 mmHg 86%
23:00 +17°C° 0 mm 6 mps 751 mmHg 90%

14 August, Friday

Time Temperature Precipitation Wind Pressure Humidity
00:00 +16°C° 0 mm 6 mps 751 mmHg 89%
01:00 +16°C° 0 mm 6 mps 750 mmHg 89%
02:00 +15°C° 0 mm 6 mps 750 mmHg 89%
03:00 +15°C° 0 mm 6 mps 750 mmHg 89%
04:00 +15°C° 0 mm 6 mps 750 mmHg 88%
05:00 +15°C° 0 mm 6 mps 750 mmHg 88%
06:00 +17°C° 0 mm 6 mps 750 mmHg 78%
07:00 +19°C° 0 mm 6 mps 750 mmHg 69%
08:00 +21°C° 0 mm 6 mps 751 mmHg 59%
09:00 +22°C° 0 mm 6 mps 750 mmHg 55%
10:00 +23°C° 0 mm 7 mps 750 mmHg 51%
11:00 +26°C° 0 mm 7 mps 750 mmHg 47%
12:00 +26°C° 0 mm 7 mps 750 mmHg 47%
13:00 +26°C° 0 mm 8 mps 750 mmHg 47%
14:00 +26°C° 0 mm 8 mps 750 mmHg 48%
15:00 +24°C° 0 mm 8 mps 750 mmHg 51%
16:00 +23°C° 0 mm 8 mps 750 mmHg 54%
17:00 +22°C° 0 mm 8 mps 750 mmHg 57%
18:00 +20°C° 0 mm 8 mps 750 mmHg 64%
19:00 +18°C° 0 mm 7 mps 750 mmHg 71%
20:00 +17°C° 0 mm 7 mps 750 mmHg 77%
21:00 +16°C° 0 mm 7 mps 750 mmHg 79%
22:00 +16°C° 0 mm 7 mps 750 mmHg 81%
23:00 +16°C° 0 mm 6 mps 750 mmHg 83%

15 August, Saturday

Time Temperature Precipitation Wind Pressure Humidity
00:00 +16°C° 0 mm 6 mps 750 mmHg 84%
01:00 +16°C° 0 mm 6 mps 750 mmHg 85%
02:00 +16°C° 0 mm 6 mps 749 mmHg 86%
03:00 +16°C° 0 mm 6 mps 749 mmHg 85%
04:00 +16°C° 0 mm 7 mps 749 mmHg 83%
05:00 +15°C° 0 mm 7 mps 750 mmHg 82%
06:00 +17°C° 0 mm 7 mps 750 mmHg 75%
07:00 +18°C° 0 mm 7 mps 750 mmHg 67%
08:00 +21°C° 0 mm 8 mps 750 mmHg 59%
09:00 +22°C° 0 mm 8 mps 750 mmHg 53%
10:00 +23°C° 0 mm 8 mps 750 mmHg 47%
11:00 +24°C° 0 mm 8 mps 750 mmHg 41%
12:00 +24°C° 0 mm 8 mps 750 mmHg 42%
13:00 +26°C° 0 mm 8 mps 750 mmHg 43%
14:00 +26°C° 0 mm 8 mps 750 mmHg 44%
15:00 +24°C° 0 mm 8 mps 750 mmHg 50%
16:00 +23°C° 0 mm 8 mps 750 mmHg 55%
17:00 +22°C° 0 mm 8 mps 750 mmHg 61%
18:00 +21°C° 0 mm 8 mps 751 mmHg 68%
19:00 +20°C° 0 mm 7 mps 751 mmHg 75%
20:00 +17°C° 0 mm 7 mps 751 mmHg 81%
21:00 +17°C° 0 mm 6 mps 751 mmHg 84%
22:00 +17°C° 0 mm 6 mps 751 mmHg 86%
23:00 +17°C° 0 mm 6 mps 751 mmHg 88%
Show more